Orbital Elements at Epoch 2459000.5 (2020-May-31.0) TDB
Reference: JPL 16 (heliocentric ecliptic J2000)
Element | Value | Uncertainty (1-sigma) | Units |
e | .1114878394979281 | 7.8456e-08 | |
a | 3.045116777267538 | 3.3334e-08 | au |
q | 2.705623286751087 | 2.3334e-07 | au |
i | 12.72725820845911 | 8.7052e-06 | deg |
node | 151.0340863920053 | 2.5925e-05 | deg |
peri | 181.3019694393458 | 3.9129e-05 | deg |
M | 213.0654503726923 | 3.328e-05 | deg |
tp | 2459792.683477882016 (2022-Aug-01.18347788) | 0.00018743 | TDB |
period | 1940.905340240849 5.31 | 3.187e-05 8.726e-08 | d yr |
n | .1854804521045458 | 3.0456e-09 | deg/d |
Q | 3.38461026778399 | 3.705e-08 | au |
|
| | Orbit Determination Parameters
Additional Information
|